Home > Weather > Achern > Past weeks

Flag for Germany Past Weather in Achern, Baden-Württemberg, Germany — Yesterday and Last 2 Weeks

Now
70 °F

Clear.


Feels Like: 70 °F
Forecast: 64 / 78 °F
Wind: 2 mph from North

Location: Karlsruhe - Baden Wurttemberg

Current Time: Jul 24, 2016 at 1:06:11 AM

Latest Report: Jul 24, 2016 at 12:20 AM


Visibility: 10 mi

Pressure: 30.09 "Hg

Humidity: 88%

Dew Point: 66 °F

Location of AchernLocation

Past Weather in Achern — Graph

°F

Achern Temperature Yesterday

Maximum temperature yesterday: 77 °F (at 2:50 PM)
Minimum temperature yesterday: 64 °F (at 4:50 AM)
Average temperature yesterday: 71 °F

High & Low Weather Summary for the Past Weeks

 TemperatureHumidityPressure
High93 °F (Jul 20, 3:50 PM)100% (Jul 10, 5:50 AM)30.33 "Hg (Jul 10, 5:50 AM)
Low50 °F (Jul 16, 4:50 AM)28% (Jul 20, 6:50 PM)29.83 "Hg (Jul 10, 6:50 PM)
Average71 °F71%30.07 "Hg
* Reported Jul 8 11:20 PM — Jul 23 11:50 PM, Achern, Weather by CustomWeather, © 2016

Note: Actual official high and low records may vary slightly from our data, if they occured in-between our weather recording intervals... More about our weather records

Advertising

Achern Weather History for the Previous 24 Hours

Scroll right to see more
 ConditionsComfort  
Time TempWeatherWind HumidityBarometerVisibility
11:50 PM
Sat, Jul 23
68 °FClear.2 mph94%30.09 "Hg10 mi
11:20 PM68 °FClear.2 mph94%30.07 "Hg10 mi
10:50 PM70 °FClear.2 mph88%30.07 "Hg10 mi
10:20 PM70 °FClear.2 mph88%30.07 "Hg10 mi
9:50 PM70 °FSunny.2 mph88%30.07 "Hg10 mi
9:20 PM72 °FSunny.1 mph78%30.04 "Hg10 mi
8:50 PM73 °FSunny.2 mph78%30.04 "Hg10 mi
8:20 PM73 °FSunny.3 mph74%30.04 "Hg10 mi
7:50 PM75 °FSunny.3 mph69%30.04 "Hg10 mi
7:20 PM75 °FSunny.3 mph74%30.04 "Hg10 mi
6:50 PM75 °FSunny.5 mph69%30.04 "Hg10 mi
6:20 PM77 °FPassing clouds.5 mph65%30.04 "HgN/A
5:50 PM77 °FSunny.5 mph65%30.04 "Hg6 mi
5:20 PM77 °FPassing clouds.3 mph69%30.04 "HgN/A
4:50 PM77 °FScattered clouds.3 mph65%30.04 "HgN/A
4:20 PM77 °FScattered clouds.5 mph69%30.04 "HgN/A
3:50 PM73 °FScattered showers. Scattered clouds.5 mph78%30.04 "HgN/A
3:20 PM73 °FScattered clouds.8 mph78%30.04 "HgN/A
2:50 PM77 °FScattered showers. Scattered clouds.6 mph69%30.04 "HgN/A
2:20 PM75 °FScattered showers. Scattered clouds.3 mph69%30.04 "HgN/A
1:50 PM73 °FScattered clouds.3 mph74%30.07 "HgN/A
1:20 PM73 °FBroken clouds.3 mph78%30.07 "HgN/A
12:50 PM73 °FBroken clouds.3 mph74%30.04 "HgN/A
12:20 PM72 °FPartly sunny.2 mph83%30.07 "HgN/A
11:50 AM68 °FScattered showers. Broken clouds.2 mph94%30.07 "Hg6 mi
11:20 AM68 °FScattered showers. Broken clouds.6 mph94%30.07 "Hg4 mi
10:50 AM68 °FDrizzle. Broken clouds.2 mph94%30.07 "Hg4 mi
10:20 AM68 °FDrizzle. Broken clouds.3 mph94%30.04 "Hg4 mi
9:50 AM68 °FBroken clouds.2 mph88%30.04 "Hg4 mi
9:20 AM68 °FFog.2 mph88%30.04 "Hg3 mi
8:50 AM68 °FFog.No wind88%30.04 "Hg3 mi
8:20 AM66 °FFog.1 mph100%30.04 "Hg3 mi
7:50 AM66 °FFog.2 mph100%30.04 "Hg2 mi
7:20 AM66 °FFog.2 mph100%30.04 "Hg2 mi
6:50 AM64 °FFog.1 mph100%30.04 "Hg2 mi
6:20 AM64 °FFog.6 mph100%30.04 "Hg2 mi
5:50 AM64 °FFog.1 mph100%30.01 "Hg2 mi
5:20 AM64 °FFog.2 mph100%30.01 "Hg2 mi
4:50 AM64 °FPassing clouds.2 mph100%30.01 "Hg4 mi
Weather by CustomWeather, © 2016

See weather overviewHow to use our weather pages